www.pogodaiklimat.ru

Погода и климат >> Архив погоды >> Южная Африка >> Александер-Бей


ПОГОДА в Александер-Бее

  • Прогноз погоды в Александер-Бее
  • Монитор погоды в Александер-Бее

АРХИВ ПОГОДЫ в Александер-Бее

Время (UTC), дата Ветер
(напр.,м/с)
 
Видим.   Явления Облачность Т
(С)
Тd
(С)
f
(%)
Тe
(С)
Тes
(С)
Комфортность P
(гПа)
Po
(гПа)
Тmin
(С)
Tmax
(С)
R
(мм)
R24
(мм)
S
(см)
03 14.05 З 2 н/о н/о +11.9 +10.1 89 +11 +11 1012.0 1009.1 +11.9 +21.3
06 14.05 В 2 н/о н/о +12.4 +11.3 93 +11 +11 1011.9 1009.0 +11.4
09 14.05 З 5 н/о н/о +19.7 +13.4 67 +21 +21 комфорт 1013.3 1010.5 +11.4 +20.0
12 14.05 З 5 н/о н/о +23.1 +14.2 57 +27 +27 душно 1012.1 1009.4 +11.4 +23.6
15 14.05 З 1 н/о н/о +19.0 +14.5 75 +21 +21 комфорт 1013.5 1010.7 +18.5 +23.6
18 14.05 З 2 н/о н/о +14.1 +13.1 94 +14 +14 1016.3 1013.5 +14.0 +23.6
21 14.05 С 1 н/о н/о +13.9 +12.9 94 +14 +14 1017.2 1014.3 +13.9 +23.6
00 15.05 штиль 0 н/о н/о +13.2 +12.4 95 +13 +13 1017.6 1014.7 +13.0 +23.6
03 15.05 Ю 2 н/о н/о +14.3 +13.5 95 +14 +14 1017.4 1014.6 +13.0 +23.6
06 15.05 ЮВ 3 н/о н/о +12.3 +11.5 95 +11 +11 1018.3 1015.4 +12.3
09 15.05 В 2 н/о н/о +14.6 +13.1 91 +14 +14 1018.5 1015.7 +12.3 +14.6
12 15.05 З 4 н/о н/о +17.9 +13.2 74 +18 +18 1016.2 1013.4 +12.3 +19.5
15 15.05 ЮЗ 6 н/о н/о +17.6 +13.7 78 +17 +17 1015.7 1012.9 +16.1 +19.5
18 15.05 Ю 7 н/о н/о +14.9 +12.4 85 +13 +13 1016.4 1013.6 +14.7 +19.5
21 15.05 З 1 н/о н/о +13.3 +11.3 88 +13 +13 1017.5 1014.6 +13.3 +19.5
00 16.05 С 3 н/о н/о +11.9 +10.6 92 +10 +10 1017.8 1014.9 +11.9 +19.5
03 16.05 В 1 н/о н/о +11.3 +10.0 92 +11 +11 1016.3 1013.4 +11.2 +19.5
06 16.05 В 2 н/о н/о +10.0 +9.0 93 +9 +9 1015.9 1013.0 +9.2
09 16.05 ЮВ 2 н/о н/о +17.6 +12.7 73 +18 +18 1015.8 1013.0 +9.2 +17.6
12 16.05 ЮЗ 5 н/о н/о +20.3 +12.6 61 +22 +22 комфорт 1012.8 1010.0 +9.2 +22.3
15 16.05 ЮЗ 2 н/о н/о +18.2 +12.0 67 +19 +19 1012.0 1009.2 +17.7 +22.3
18 16.05 З 6 н/о н/о +14.5 +12.5 88 +13 +13 1014.3 1011.5 +14.1 +22.3
21 16.05 С 3 н/о н/о +13.6 +11.6 88 +12 +12 1016.1 1013.2 +13.6 +22.3
00 17.05 С 3 н/о н/о +14.0 +12.7 92 +13 +13 1016.2 1013.4 +13.2 +22.3
03 17.05 С 2 н/о н/о +15.0 +12.5 85 +15 +15 1015.9 1013.1 +13.2 +22.3
06 17.05 СВ 2 н/о н/о +15.2 +11.6 79 +15 +15 1016.0 1013.2 +13.2
09 17.05 В 2 н/о н/о +18.0 +11.8 67 +19 +19 1016.9 1014.1 +13.2 +18.0
12 17.05 З 5 н/о н/о +19.9 +12.2 61 +21 +21 комфорт 1016.0 1013.2 +13.2 +20.7
15 17.05 З 4 н/о н/о +18.7 +13.4 71 +19 +19 1016.9 1014.1 +18.7 +20.7
18 17.05 З 3 н/о н/о +14.9 +12.7 87 +14 +14 1017.7 1014.9 +14.9 +20.7
21 17.05 С 1 н/о н/о +14.7 +13.2 91 +15 +15 1018.5 1015.7 +14.6 +20.7
00 18.05 штиль 0 н/о н/о +14.0 +12.5 91 +14 +14 1018.4 1015.5 +13.9 +20.7
03 18.05 В 3 н/о н/о +12.1 +11.3 95 +10 +10 1017.0 1014.1 +11.6 +20.7
06 18.05 ЮВ 3 н/о н/о +12.3 +11.5 95 +11 +11 1017.1 1014.2 +11.6
09 18.05 Ю 1 н/о н/о +15.2 +12.9 86 +16 +16 1016.6 1013.8 +11.6 +15.2
12 18.05 ЮЗ 7 н/о н/о +17.8 +12.1 69 +17 +17 1013.7 1010.9 +11.6 +18.7
15 18.05 З 4 н/о н/о +16.0 +11.8 76 +15 +15 1013.7 1010.9 +16.0 +18.7
18 18.05 З 1 н/о н/о +12.7 +11.4 92 +13 +13 1014.8 1011.9 +12.7 +18.7
21 18.05 СВ 1 н/о н/о +12.3 +11.2 93 +12 +12 1014.4 1011.5 +12.2 +18.7
00 19.05 штиль 0 н/о н/о +11.4 +10.6 95 +11 +11 1014.0 1011.1 +11.1 +18.7
03 19.05 С 2 н/о н/о +10.3 +9.6 95 +9 +9 1014.1 1011.2 +10.3 +18.7
06 19.05 С 3 н/о н/о +9.8 +9.0 95 +7 +7 1016.1 1013.2 +9.7
09 19.05 СВ 3 н/о н/о +12.6 +10.3 86 +11 +11 1017.5 1014.6 +9.7 +12.6
12 19.05 З 7 н/о н/о +16.7 +11.4 71 +16 +16 1015.6 1012.8 +9.7 +17.7
15 19.05 СЗ 3 н/о н/о +17.4 +11.7 69 +18 +18 1015.7 1012.9 +15.5 +17.7
18 19.05 ЮВ 2 н/о н/о +15.2 +11.2 77 +15 +15 1016.4 1013.6 +14.9 +17.7
21 19.05 В 2 н/о н/о +13.2 +10.4 83 +12 +12 1017.2 1014.3 +13.2 +17.7
00 20.05 В 2 н/о н/о +12.5 +9.7 83 +12 +12 1017.1 1014.2 +12.0 +17.7
03 20.05 В 2 н/о н/о +11.8 +9.7 87 +11 +11 1017.4 1014.5 +11.7 +17.7
06 20.05 З 2 н/о н/о +14.5 +12.5 88 +14 +14 1019.3 1016.4 +11.7 0.4
09 20.05 З 3 н/о н/о +15.6 +14.6 94 +15 +15 1022.4 1019.6 +11.7 +15.6
12 20.05 ЮЗ 2 н/о н/о +17.2 +14.8 86 +17 +17 1022.6 1019.8 +11.7 +17.2 3
15 20.05 ЮЗ 3 н/о н/о +17.1 +13.8 81 +17 +17 1022.6 1019.8 +17.1 +17.9
18 20.05 Ю 1 н/о н/о +15.0 +13.5 91 +15 +15 1024.0 1021.1 +15.0 +17.9 3
21 20.05 Ю 4 н/о н/о +13.2 +11.2 88 +12 +12 1024.3 1021.4 +13.2 +17.9
00 21.05 Ю 4 н/о н/о +11.0 +8.7 86 +9 +9 1023.8 1020.9 +11.0 +17.9 3

 

Местоположение метеостанции Александер-Бей (Южная Африка): широта -28.56 долгота 16.53 высота над уровнем моря 29 м.

В архиве по умолчанию представлена погода в Александер-Бее за последнюю неделю. Архивные данные за месяц целиком и за предыдущие месяцы, начиная с января 2011 года, Вы можете получить, выбрав интересующий диапазон дат из раскрывающегося списка и нажав кнопку "Ввод!".


*Определитесь, кто Вы:
робот инопланетянин человек

Внимание! Время в таблицах - всемирное. Для получения местного времени необходимо прибавить поправку, которая равна 2 ч.

Смотрите также архив погоды в соседних городах и на ближайших метеорологических станциях:

Погода в Порт Ноллоз (Южная Африка) (82 км)
Погода в Виулсдрифе (Южная Африка) (106 км)
Погода в Спрингбоке (Южная Африка) (181 км)
Погода в Коингнаасе (Южная Африка) (196 км)
Погода в Людерице (Намибия) (257 км)
Погода в Китмансхупе (Намибия) (275 км)
Погода в Пофаддере (Южная Африка) (285 км)
Погода в Портервилле (Южная Африка) (287 км)
Погода на Ауграбисе (Южная Африка) (372 км)
Погода в Фридендале (Южная Африка) (393 км)

Пояснения к столбцам:

Ветер - указаны скорость ветра в м/с - средняя за 10 мин, порывы в срок и между сроками (в фигурных скобках) и направление, откуда дует ветер: С - северный, СВ - северо-восточный, В - восточный, ЮВ - юго-восточный, Ю - южный, ЮЗ - юго-западный, З - западный, СЗ - северо-западный.
Видимость - горизонтальная дальность видимости в метрах или километрах. При видимости от 1 до 10 км при отсутствии осадков обычно наблюдается дымка, при ухудшении видимости до 1 км и менее - туман. В сухую погоду видимость может ухудшаться дымом, пылью или мглою.
Явления - указаны атмосферные явления, наблюдавшиеся в срок или в последний час перед сроком; фигурными скобками обозначены явления, наблюдавшиеся между сроками (за 1-3 часа до срока); квадратными скобками обозначены град или гололедные отложения с указанием их диаметра в мм.
Облачность - указаны через наклонную черту общая и нижняя облачность в баллах и высота нижней границы облаков в метрах; квадратными скобками обозначены формы облаков: Ci - перистые, Cs - перисто-слоистые, Cc - перисто-кучевые, Ac - высококучевые, As - высокослоистые, Sc - слоисто-кучевые, Ns - слоисто-дождевые, Cu - кучевые, Cb - кучево-дождевые. Подробнее классификацию облаков см. в Атласе облаков (PDF).
T - Температура воздуха - температура, измеренная на высоте 2 м над землей.
Td - Температура точки росы - температура, при понижении до которой содержащийся в воздухе водяной пар достигнет насыщения.
f - Относительная влажность воздуха - влажноcть воздуха, измеренная на высоте 2 м над землей.
Te - Эффективная температура - температура, которую ощущает одетый по сезону человек в тени. Характеристика душности погоды. При расчете учитывается влияние влажности воздуха и скорости ветра на теплоощущения человека.
Tes - Эффективная температура на солнце - температура, которую ощущает человек, с поправкой на солнечный нагрев. Характеристика знойности погоды. Зависит от высоты солнца над горизонтом, облачности и скорости ветра. Ночью, в пасмурную погоду, а также при ветре 12 м/с и более поправка равна нулю.
P - Атмосферное давление - приведенное к уровню моря атмосферное давление.
Po - Атмосферное давление - измеренное на уровне метеостанции атмосферное давление.
Tmin - Минимальная температура - минимум температуры воздуха на высоте 2 м над землей.
Tmax - Максимальная температура - максимум температуры воздуха на высоте 2 м над землей.
R - Количество осадков - Количество выпавших осадков за период времени, мм. При наведении курсора мыши на число - период времени, за который выпало указанное количество осадков.
R24 - Количество осадков - Количество выпавших осадков за 24 часа, мм.
S - Снежный покров - Высота снежного покрова, см. При наведении курсора мыши на число - состояние снежного покрова и степень покрытия местности в баллах.